FW1140 Weather Reports


time (UTC)temp
C
wind
direction
speed
KPH
gust
KPH
rain 1hr
cm
rain 24hr
cm
rain mn
cm
humidity
%
barometer
mb
20260905194558 -17 0.0 0.0 0.00 0.00 0.00 1009.4
20260905193001 29 126 6.4 25.7 0.00 0.00 0.00 60 1009.2
20260905191556 29 69 8.0 14.5 0.00 0.00 0.00 59 1009.4
20260905190111 28 95 8.0 17.7 0.00 0.00 0.00 61 1009.6
20260905184514 28 128 6.4 17.7 0.00 0.00 0.00 63 1009.7
20260905183044 27 105 11.3 20.9 0.00 0.00 0.00 63 1009.8
20260905181605 27 91 9.7 20.9 0.00 0.00 0.00 65 1009.8
20260905180038 27 87 6.4 20.9 0.00 0.00 0.00 67 1010.0
20260905174549 26 119 9.7 20.9 0.00 0.00 0.00 70 1010.2
20260905173045 26 102 9.7 19.3 0.00 0.00 0.00 70 1010.2
20260905171609 25 122 6.4 19.3 0.00 0.00 0.00 73 1010.4
20260905170019 23 144 8.0 16.1 0.00 0.00 0.00 77 1010.5
20260905164535 24 88 6.4 16.1 0.00 0.00 0.00 77 1010.9
20260905163035 23 80 6.4 14.5 0.00 0.00 0.00 78 1010.7
20260905161532 23 117 6.4 17.7 0.00 0.00 0.00 79 1010.9
20260905160040 22 85 6.4 14.5 0.00 0.00 0.00 82 1011.1
20260905154555 21 77 6.4 12.9 0.00 0.00 0.00 86 1011.0
20260905153001 22 85 6.4 12.9 0.00 0.00 0.00 86 1010.9
20260905151520 20 123 4.8 12.9 0.00 0.00 0.00 91 1010.9
20260905150029 20 68 4.8 12.9 0.00 0.00 0.00 93 1011.0
20260905144551 20 73 6.4 11.3 0.00 0.00 0.00 94 1010.7
20260905143026 19 79 4.8 9.7 0.00 0.00 0.00 95 1010.6
20260905141508 19 96 4.8 11.3 0.00 0.00 0.00 94 1010.2
20260905140022 19 56 4.8 11.3 0.00 0.00 0.00 95 1010.5
20260905134503 19 59 3.2 6.4 0.00 0.00 0.00 95 1010.5
20260905133106 19 117 3.2 9.7 0.00 0.00 0.00 95 1010.7
20260905131551 19 75 1.6 6.4 0.00 0.00 0.00 95 1010.6
20260905130026 19 144 3.2 8.0 0.00 0.00 0.00 95 1010.9
20260905124536 19 162 1.6 8.0 0.00 0.00 0.00 95 1010.8
20260905123020 18 110 3.2 12.9 0.00 0.00 0.00 95 1010.0
20260905121540 18 51 4.8 12.9 0.00 0.00 0.00 94 1010.4
20260905120031 18 101 4.8 12.9 0.00 0.00 0.00 94 1010.1
20260905114622 19 99 4.8 11.3 0.00 0.00 0.00 94 1010.0
20260905113048 19 136 1.6 8.0 0.00 0.00 0.00 94 1010.3
20260905111504 19 94 3.2 6.4 0.00 0.00 0.00 94 1010.7
20260905110016 19 107 3.2 6.4 0.00 0.00 0.00 94 1010.6
20260905104529 18 217 0.0 3.2 0.00 0.00 0.00 94 1010.7
20260905103030 18 62 1.6 4.8 0.00 0.00 0.00 94 1010.4
20260905101510 -17 0.0 0.0 0.00 0.00 0.00 1010.2
20260905100024 -17 0.0 0.0 0.00 0.00 0.00 1010.1
20260905094538 -17 0.0 0.0 0.00 0.00 0.00 1009.9
20260905093056 -17 0.0 0.0 0.00 0.00 0.00 1009.8
20260905091504 -17 0.0 0.0 0.00 0.00 0.00 1009.7
20260905090027 -17 0.0 0.0 0.00 0.00 0.00 1009.9
20260905084540 -17 0.0 0.0 0.00 0.00 0.00 1009.3
20260905083011 19 132 9.7 17.7 0.00 0.00 0.00 94 1009.3
20260905081521 19 149 4.8 11.3 0.00 0.00 0.00 94 1009.7
20260905080038 19 113 1.6 6.4 0.00 0.00 0.00 94 1009.9
20260905074600 19 70 1.6 8.0 0.00 0.00 0.00 94 1010.2
20260905073114 19 56 1.6 4.8 0.00 0.00 0.00 94 1010.3
20260905071524 20 137 1.6 4.8 0.00 0.00 0.00 94 1010.4
20260905070020 20 103 3.2 8.0 0.00 0.00 0.00 94 1010.6
20260905064507 19 133 1.6 6.4 0.00 0.00 0.00 94 1010.6
20260905063028 18 157 0.0 1.6 0.00 0.00 0.00 93 1010.6
20260905061622 18 157 0.0 1.6 0.00 0.00 0.00 93 1010.8
20260905060052 18 157 1.6 3.2 0.00 0.00 0.00 93 1010.8
20260905054530 18 157 0.0 0.0 0.00 0.00 0.00 93 1010.7
20260905053034 18 157 0.0 0.0 0.00 0.00 0.00 93 1010.5
20260905051529 18 157 0.0 0.0 0.00 0.00 0.00 92 1010.4
20260905050043 18 157 0.0 0.0 0.00 0.00 0.00 92 1010.3
20260905044603 18 157 0.0 1.6 0.00 0.00 0.00 92 1010.2
20260905043020 19 157 0.0 3.2 0.00 0.00 0.00 91 1010.0
20260905041527 19 157 0.0 1.6 0.00 0.00 0.00 92 1009.9
20260905040027 20 157 0.0 1.6 0.00 0.00 0.00 92 1010.1
20260905034522 20 157 0.0 0.0 0.00 0.00 0.00 91 1009.9
20260905033053 20 157 1.6 3.2 0.00 0.00 0.00 91 1010.0
20260905031616 20 157 0.0 4.8 0.00 0.00 0.00 91 1009.8
20260905030044 19 1 0.0 1.6 0.00 0.00 0.00 90 1009.6
20260905024552 20 1 1.6 3.2 0.00 0.00 0.00 90 1009.9
20260905023037 21 1 0.0 4.8 0.00 0.00 0.00 88 1009.4
20260905021540 21 137 4.8 9.7 0.00 0.00 0.00 89 1008.8
20260905020048 20 146 3.2 6.4 0.00 0.00 0.00 90 1008.8
20260905014555 19 93 0.0 1.6 0.00 0.00 0.00 89 1009.0
20260905013014 20 93 0.0 0.0 0.00 0.00 0.00 87 1008.6
20260905011528 21 93 0.0 0.0 0.00 0.00 0.00 87 1008.6
20260905010050 21 93 0.0 0.0 0.00 0.00 0.00 84 1008.4
20260905004612 23 93 0.0 0.0 0.00 0.00 0.00 83 1008.5
20260905003024 23 93 0.0 0.0 0.00 0.00 0.00 81 1008.4
20260905001542 24 93 0.0 3.2 0.00 0.00 0.00 78 1008.5
20260905000048 25 78 3.2 8.0 0.00 0.00 0.00 75 1008.4
20260904234557 25 60 3.2 11.3 0.00 0.00 0.00 73 1008.4
20260904233023 26 81 3.2 11.3 0.00 0.00 0.00 72 1008.4
20260904231508 27 105 3.2 14.5 0.00 0.00 0.00 68 1008.4
20260904230017 27 65 3.2 8.0 0.00 0.00 0.00 67 1008.5
20260904224516 28 54 4.8 12.9 0.00 0.00 0.00 66 1008.4
20260904223017 28 68 4.8 12.9 0.00 0.00 0.00 63 1008.2
20260904221529 28 123 4.8 11.3 0.00 0.00 0.00 64 1008.2
20260904220037 28 69 1.6 12.9 0.00 0.00 0.00 61 1008.2
20260904214523 29 61 8.0 14.5 0.00 0.00 0.00 61 1008.2
20260904213042 29 86 4.8 9.7 0.00 0.00 0.00 63 1008.3
20260904211558 29 68 4.8 11.3 0.00 0.00 0.00 62 1008.3
20260904210059 29 44 8.0 14.5 0.00 0.00 0.00 60 1008.5
20260904204610 29 26 6.4 14.5 0.00 0.00 0.00 61 1008.5
20260904203006 28 103 6.4 16.1 0.00 0.00 0.00 63 1008.4
20260904201507 28 85 4.8 11.3 0.00 0.00 0.00 62 1008.5